Tracking 29594 objects as of 21-Sep-2024
HD Live streaming from Space Station
objects crossing your sky now

THOR ABLESTAR DEB

Track THOR ABLESTAR DEB now!
10-day predictions


NORAD ID: 350
Int'l Code: 1961-015DQ
Perigee: 730.6 km
Apogee: 922.2 km
Inclination: 66.9 °
Period: 101.3 minutes
Semi major axis: 7197 km
RCS: 0.1129 m2 (medium)
Launch date: June 29, 1961
Source: United States (US)
Launch site: AIR FORCE EASTERN TEST RANGE (AFETR)

Note: This is SATELLITE DEBRIS
Your satellite tracking list
Your tracking list is empty




NASA's NSSDC Master Catalog

Two Line Element Set (TLE):
1 00350U 61015DQ  24264.44102140  .00000999  00000-0  44840-3 0  9995
2 00350  66.9121  56.0050 0133100 269.9165  88.6679 14.21809829272680
Source of the keplerian elements: AFSPC